Location: Dob?e?
(49.9411°N, 15.1496°E)
Time: 19:31:41
(UTC+00:00)

NOAA 18 - Pass Details

Date: 28 October 2021
Orbit: 840 x 861 km, 99.0° (Epoch: 01 December)

Event Time Altitude Azimuth Distance (km) Brightness Sun altitude
Exits shadow 19:56:16 14° 352° (N) 2,211 7.7 -40.1°
Drops below altitude 10° 19:57:03 10° 350° (N) 2,511 8.0 -40.2°
Sets 19:59:28 0° 348° (NNW) 3,452 8.9 -40.6°
